• în Republica Moldova
  • Lista ţărilor
  • Pe 7 zile
  • Temperatura apei
  • Hartă satelitară
  • Meteo pe hartă
  • Widget-uri
  • user-avatar
    Intrare

    Meteo pe oră la Eisenstadt

    Astăzi, 20 Octombrie, Vineri

    Timp Temperatura Precipitaţii Vânt Presiune Umiditate
    00:00 +9°C° 0 mm 0 m/s 722 mmHg 79%
    01:00 +9°C° 0 mm 0 m/s 722 mmHg 77%
    02:00 +9°C° 0 mm 0 m/s 722 mmHg 78%
    03:00 +8°C° 0 mm 0 m/s 722 mmHg 79%
    04:00 +8°C° 0 mm 0 m/s 722 mmHg 80%
    05:00 +8°C° 0 mm 0 m/s 722 mmHg 80%
    06:00 +8°C° 0 mm 0 m/s 722 mmHg 80%
    07:00 +8°C° 0 mm 0 m/s 722 mmHg 80%
    08:00 +11°C° 0 mm 1 m/s 723 mmHg 73%
    09:00 +14°C° 0 mm 1 m/s 723 mmHg 65%
    10:00 +16°C° 0 mm 1 m/s 723 mmHg 58%
    11:00 +18°C° 0 mm 1 m/s 723 mmHg 55%
    12:00 +19°C° 0 mm 1 m/s 723 mmHg 52%
    13:00 +20°C° 0 mm 1 m/s 723 mmHg 48%
    14:00 +20°C° 0 mm 1 m/s 723 mmHg 52%
    15:00 +19°C° 0 mm 1 m/s 723 mmHg 56%
    16:00 +16°C° 0 mm 0 m/s 723 mmHg 60%
    17:00 +15°C° 0 mm 0 m/s 723 mmHg 64%
    18:00 +14°C° 0 mm 1 m/s 723 mmHg 69%
    19:00 +13°C° 0 mm 1 m/s 723 mmHg 73%
    20:00 +13°C° 0 mm 1 m/s 723 mmHg 74%
    21:00 +12°C° 0 mm 1 m/s 724 mmHg 74%
    22:00 +12°C° 0 mm 1 m/s 724 mmHg 75%
    23:00 +12°C° 0 mm 1 m/s 724 mmHg 75%

    Mâine, 21 Octombrie, Sâmbătă

    Timp Temperatura Precipitaţii Vânt Presiune Umiditate
    00:00 +12°C° 0 mm 1 m/s 724 mmHg 75%
    01:00 +12°C° 0 mm 1 m/s 724 mmHg 75%
    02:00 +11°C° 0 mm 1 m/s 724 mmHg 74%
    03:00 +11°C° 0 mm 1 m/s 724 mmHg 74%
    04:00 +11°C° 0 mm 1 m/s 724 mmHg 73%
    05:00 +11°C° 0 mm 1 m/s 724 mmHg 72%
    06:00 +11°C° 0 mm 1 m/s 724 mmHg 71%
    07:00 +12°C° 0 mm 1 m/s 724 mmHg 71%
    08:00 +14°C° 0 mm 1 m/s 724 mmHg 64%
    09:00 +16°C° 0 mm 1 m/s 724 mmHg 57%
    10:00 +19°C° 0 mm 1 m/s 725 mmHg 51%
    11:00 +20°C° 0 mm 1 m/s 724 mmHg 48%
    12:00 +21°C° 0 mm 1 m/s 724 mmHg 46%
    13:00 +22°C° 0 mm 1 m/s 724 mmHg 43%
    14:00 +21°C° 0 mm 1 m/s 724 mmHg 48%
    15:00 +20°C° 0 mm 1 m/s 723 mmHg 53%
    16:00 +19°C° 0 mm 1 m/s 723 mmHg 58%
    17:00 +18°C° 0 mm 1 m/s 723 mmHg 62%
    18:00 +16°C° 0 mm 1 m/s 723 mmHg 65%
    19:00 +15°C° 0 mm 1 m/s 723 mmHg 69%
    20:00 +14°C° 0 mm 1 m/s 723 mmHg 70%
    21:00 +14°C° 0 mm 1 m/s 723 mmHg 71%
    22:00 +14°C° 0 mm 1 m/s 723 mmHg 72%
    23:00 +13°C° 0 mm 1 m/s 722 mmHg 73%

    Poimâine, 22 Octombrie, Duminică

    Timp Temperatura Precipitaţii Vânt Presiune Umiditate
    00:00 +13°C° 0 mm 1 m/s 722 mmHg 73%
    01:00 +13°C° 0 mm 1 m/s 722 mmHg 74%
    02:00 +13°C° 0 mm 1 m/s 722 mmHg 74%
    03:00 +13°C° 0 mm 1 m/s 722 mmHg 75%
    04:00 +12°C° 0 mm 1 m/s 721 mmHg 76%
    05:00 +12°C° 0 mm 1 m/s 722 mmHg 77%
    06:00 +12°C° 0 mm 1 m/s 722 mmHg 78%
    07:00 +12°C° 0 mm 1 m/s 722 mmHg 79%
    08:00 +13°C° 0 mm 2 m/s 722 mmHg 76%
    09:00 +13°C° 0 mm 3 m/s 722 mmHg 72%
    10:00 +14°C° 0 mm 5 m/s 722 mmHg 69%
    11:00 +13°C° 0,2 mm 5 m/s 722 mmHg 70%
    12:00 +12°C° 0,2 mm 5 m/s 722 mmHg 72%
    13:00 +12°C° 0,2 mm 5 m/s 721 mmHg 73%
    14:00 +10°C° 1,3 mm 5 m/s 721 mmHg 77%
    15:00 +9°C° 1,3 mm 5 m/s 721 mmHg 81%
    16:00 +8°C° 1,3 mm 5 m/s 721 mmHg 85%
    17:00 +8°C° 1,2 mm 5 m/s 721 mmHg 85%
    18:00 +8°C° 1,2 mm 5 m/s 721 mmHg 85%
    19:00 +8°C° 1,2 mm 5 m/s 721 mmHg 85%
    20:00 +7°C° 0,5 mm 5 m/s 721 mmHg 84%
    21:00 +7°C° 0,5 mm 5 m/s 721 mmHg 84%
    22:00 +7°C° 0,5 mm 5 m/s 721 mmHg 83%
    23:00 +7°C° 0,2 mm 5 m/s 721 mmHg 82%

    23 Octombrie, Luni

    Timp Temperatura Precipitaţii Vânt Presiune Umiditate
    00:00 +7°C° 0,2 mm 5 m/s 721 mmHg 82%
    01:00 +7°C° 0,2 mm 4 m/s 721 mmHg 82%
    02:00 +7°C° 0 mm 5 m/s 720 mmHg 81%
    03:00 +6°C° 0 mm 5 m/s 720 mmHg 79%
    04:00 +5°C° 0 mm 6 m/s 720 mmHg 78%
    05:00 +5°C° 0 mm 6 m/s 720 mmHg 78%
    06:00 +5°C° 0 mm 6 m/s 720 mmHg 77%
    07:00 +5°C° 0 mm 6 m/s 720 mmHg 77%
    08:00 +7°C° 0 mm 6 m/s 720 mmHg 73%
    09:00 +6°C° 0 mm 7 m/s 720 mmHg 69%
    10:00 +8°C° 0 mm 7 m/s 720 mmHg 66%
    11:00 +9°C° 0 mm 7 m/s 720 mmHg 63%
    12:00 +9°C° 0 mm 7 m/s 720 mmHg 60%
    13:00 +10°C° 0 mm 7 m/s 720 mmHg 56%
    14:00 +10°C° 0 mm 6 m/s 720 mmHg 60%
    15:00 +9°C° 0 mm 6 m/s 720 mmHg 63%
    16:00 +9°C° 0 mm 5 m/s 720 mmHg 66%
    17:00 +8°C° 0 mm 5 m/s 721 mmHg 68%
    18:00 +8°C° 0 mm 5 m/s 721 mmHg 70%
    19:00 +7°C° 0 mm 5 m/s 721 mmHg 72%
    20:00 +7°C° 0 mm 5 m/s 721 mmHg 73%
    21:00 +7°C° 0 mm 4 m/s 721 mmHg 74%
    22:00 +7°C° 0 mm 4 m/s 721 mmHg 75%
    23:00 +7°C° 0 mm 4 m/s 722 mmHg 76%

    24 Octombrie, Marţi

    Timp Temperatura Precipitaţii Vânt Presiune Umiditate
    00:00 +7°C° 0 mm 4 m/s 722 mmHg 76%
    01:00 +7°C° 0 mm 4 m/s 722 mmHg 76%
    02:00 +7°C° 0 mm 4 m/s 722 mmHg 77%
    03:00 +7°C° 0 mm 4 m/s 722 mmHg 79%
    04:00 +7°C° 0 mm 4 m/s 722 mmHg 80%
    05:00 +7°C° 0 mm 4 m/s 722 mmHg 81%
    06:00 +7°C° 0 mm 4 m/s 723 mmHg 81%
    07:00 +6°C° 0 mm 4 m/s 723 mmHg 82%
    08:00 +8°C° 0 mm 5 m/s 723 mmHg 77%
    09:00 +9°C° 0 mm 5 m/s 724 mmHg 72%
    10:00 +10°C° 0 mm 6 m/s 724 mmHg 67%
    11:00 +10°C° 0 mm 6 m/s 724 mmHg 65%
    12:00 +11°C° 0 mm 6 m/s 724 mmHg 62%
    13:00 +13°C° 0 mm 6 m/s 724 mmHg 60%
    14:00 +11°C° 0 mm 6 m/s 724 mmHg 62%
    15:00 +12°C° 0 mm 5 m/s 725 mmHg 64%
    16:00 +10°C° 0 mm 5 m/s 725 mmHg 66%
    17:00 +10°C° 0 mm 5 m/s 725 mmHg 71%
    18:00 +10°C° 0 mm 4 m/s 726 mmHg 75%
    19:00 +8°C° 0 mm 4 m/s 726 mmHg 79%
    20:00 +7°C° 0 mm 4 m/s 727 mmHg 81%
    21:00 +7°C° 0 mm 4 m/s 727 mmHg 82%
    22:00 +7°C° 0 mm 4 m/s 728 mmHg 83%
    23:00 +7°C° 0 mm 4 m/s 728 mmHg 84%

    25 Octombrie, Miercuri

    Timp Temperatura Precipitaţii Vânt Presiune Umiditate
    00:00 +7°C° 0 mm 3 m/s 728 mmHg 85%
    01:00 +7°C° 0 mm 3 m/s 728 mmHg 87%
    02:00 +7°C° 0 mm 3 m/s 728 mmHg 87%
    03:00 +5°C° 0 mm 3 m/s 729 mmHg 88%
    04:00 +5°C° 0 mm 3 m/s 729 mmHg 88%
    05:00 +5°C° 0 mm 3 m/s 729 mmHg 88%
    06:00 +5°C° 0 mm 3 m/s 729 mmHg 89%
    07:00 +5°C° 0 mm 3 m/s 729 mmHg 89%
    08:00 +8°C° 0 mm 3 m/s 730 mmHg 80%
    09:00 +10°C° 0 mm 3 m/s 730 mmHg 71%
    10:00 +12°C° 0 mm 4 m/s 730 mmHg 62%
    11:00 +13°C° 0 mm 3 m/s 730 mmHg 58%
    12:00 +14°C° 0 mm 3 m/s 730 mmHg 53%
    13:00 +16°C° 0 mm 3 m/s 730 mmHg 49%
    14:00 +14°C° 0 mm 3 m/s 730 mmHg 53%
    15:00 +14°C° 0 mm 2 m/s 729 mmHg 57%
    16:00 +14°C° 0 mm 2 m/s 729 mmHg 61%
    17:00 +12°C° 0 mm 1 m/s 730 mmHg 66%
    18:00 +11°C° 0 mm 1 m/s 730 mmHg 70%
    19:00 +9°C° 0 mm 1 m/s 730 mmHg 75%
    20:00 +9°C° 0 mm 1 m/s 731 mmHg 75%
    21:00 +9°C° 0 mm 1 m/s 731 mmHg 75%
    22:00 +9°C° 0 mm 1 m/s 731 mmHg 75%
    23:00 +9°C° 0 mm 1 m/s 731 mmHg 75%
    Arată mai mult